Agen Judi Online

Jackpot

Texas Poker Multi Jackpot System

Kini Telah hadir Jackpot SUPER ROYAL FLUSH

Kini Telah hadir Jackpot 2000 (khusus table VIP keatas).

Ikutilah global jackpot yang tersedia di system kami, dengan system jackpot terbaru dan pertama di indonesia, anda dapat membeli jackpot dengan harga 100 rupiah saja dan menangkan hadiahnya hingga puluhan juta rupiah.

Jackpot bukanlah suatu keharusan untuk dibeli, namun kami memberikan suatu fitur tambahan untuk member tercinta dari www.pokerqq81.net.

Terdapat tiga pilihan harga jackpot yang bisa anda beli yaitu :100,500,1000 dan 2000(khusus table VIP Keatas) rupiah.

Hadiah dari Multi jackpot system www.pokerqq81.net

  1. full house x 10 harga jackpot yang anda beli.
      (contoh:anda membeli 1000 maka:1000 X10 = 10.000)
  2. four of kind x 250 harga jackpot yang anda beli
      (contoh:anda membeli 1000 maka:1000 X250 = 250.000)
  3. Straight flush x 1200
      (contoh:anda membeli 1000 maka:1000 X1200 = 1.200.000)
  4. Royal flush x 10000 harga jackpot yang anda beli
      (contoh:anda membeli 1000 maka:1000 X10000 = 10.000.000)
  5. SUPER ROYAL FLUSH x 30000 harga jackpot yang anda beli
      (contoh:anda membeli 1000 maka:1000 X30000 = 30.000.000)

Kondisi kartu

  1. full house adalah kondisi kartu dimana kartu anda dan kartu tengah dengan total 7 kartu bisa mendapatkan nilai 5 kartu dengan kombinasi 1 tris(three of kind) dan 1 pair, contoh 3 kartu 10 dan 2 kartu 5
  2. Four of kind adalah kondisi kartu dimana kartu anda dan kartu tengah dengan total 7 kartu bisa mendapatkan nilai 5 kartu dengan kombinasi 4 kartu yang sama jumlah dan 1 kartu apapun juga contoh anda mendapatkan 4 buah kartu angka 3 dan 1 kartu apapun.
  3. Staright flush adalah kondisi kartu dimana kartu anda dan kartu tengah dengan total 7 kartu bisa mendapatkan nilai 5 kartu dengan kombinasi seri / staright dengan kembang yang sama contoh : urutan kartu dari angka 5, 6, 7, 8 , 9 10 dengan kembang yg sama misalnya as hati
  4. Royal flush adalah kondisi kartu dimana kartu anda dan kartu tengah dengan total 7 kartu bisa mendapatkan nilai 5 kartu dengan kombinasi seri / staright dengan kembang yang sama tetapi kartu tersebut haruslah dimulai dari 10. contoh 10, Queen, Jack, King dan aces dengan kembang yang sama
  5. Super Royal flush adalah kondisi kartu dimana Kedua kartu anda digabung dengan 3 kartu pertama meja haruslah royal flush. contoh kartu anda 10,Queen kembang sama dan 3 kartu pertama meja adalah Jack, King dan aces dengan kembang yang sama

Demikian adalah penjelasan dari Multi Jackpot www.pokerqq81.net terima kasih dan selamat bermain salam hoki dari kami

Texas Poker Jackpot Winner

TOP SUPER ROYAL FLUSH
No.TanggalNamaPriceWin
116/12 02:11OREL4486Super Royal flush15,000,000
216/12 01:28BAASELAHSuper Royal flush15,000,000
315/12 23:51T1URSuper Royal flush15,000,000
415/12 22:19TARONCOPSuper Royal flush30,000,000
515/12 22:06ANES122Super Royal flush15,000,000
TOP ROYAL FLUSH
No.TanggalNamaPriceWin
116/12 04:07BOELOED88Royal flush2,000,000
216/12 03:42SELON97Royal flush10,000,000
316/12 03:36KEZOT005Royal flush1,000,000
416/12 03:32IMEN999Royal flush5,000,000
516/12 03:06YAKUZA_27Royal flush10,000,000
TOP STRAIGHT FLUSH
No.TanggalNamaPriceWin
116/12 04:24OMBAKLAUTStraight Flush120,000
216/12 04:19NICK019Straight Flush240,000
316/12 04:19CAKRIStraight Flush600,000
416/12 04:18ODER_FLAStraight Flush240,000
516/12 04:14DXXZXN69Q4Straight Flush600,000
LATEST JACKPOT
No.TanggalNamaPriceWin
116/12 04:25WIWICHANFull House2,000
216/12 04:25LILMONSTAFull House1,000
316/12 04:25POSITIF09Full House5,000
416/12 04:25PITER70Full House1,000
516/12 04:25YG4NEHFull House5,000
616/12 04:25D3NA1Full House2,000
716/12 04:25CS7PUVMWJ5Full House2,000
816/12 04:25IZHARNDEFull House2,000
916/12 04:25JONGS22Full House2,000
1016/12 04:25GUSADE90Full House1,000
1116/12 04:25ANDRE8879Full House2,000
1216/12 04:25MANKNAPEFull House5,000
1316/12 04:25AM1RA01Full House10,000
1416/12 04:25YAMO345Full House5,000
1516/12 04:25BEJECKFull House1,000
1616/12 04:25D1663RRFull House10,000
1716/12 04:25AYAMTEMPURFull House5,000
1816/12 04:25PAYET11Full House1,000
1916/12 04:25SAMINGFull House2,000
2016/12 04:25LICIN33Full House10,000
2116/12 04:25BANGORR626Full House5,000
2216/12 04:25EXIS_BOS66Full House5,000
2316/12 04:24C1NKFull House2,000
2416/12 04:24BANPOL11Full House2,000
2516/12 04:24BAKAWUA99Full House5,000
2616/12 04:24ANDDDIII06Full House2,000
2716/12 04:24KRISNA2404Full House1,000
2816/12 04:24ZIONIC2Full House2,000
2916/12 04:24BARAN17Full House2,000
3016/12 04:24GFCDJMCYQWFull House10,000
3116/12 04:24UPUY059Full House2,000
3216/12 04:24TRENTUYAWFull House5,000
3316/12 04:24DESTR0YER4Full House5,000
3416/12 04:24P22WFCT3WJFull House1,000
3516/12 04:24MASITTAFull House10,000
3616/12 04:24M00Full House10,000
3716/12 04:24JDG8RPK33FFour Of A Kind125,000
3816/12 04:24NAFISA01Full House2,000
3916/12 04:24H6GEDE6N96Full House2,000
4016/12 04:24AZBIL78Full House10,000
4116/12 04:24ZIK31Full House10,000
4216/12 04:24WAHIT55Full House1,000
4316/12 04:24MUKLIS58Full House5,000
4416/12 04:24RAJAPKR66Full House2,000
4516/12 04:24KULLUZFull House10,000
4616/12 04:24SDKN00Full House10,000
4716/12 04:24PUPUN_Full House2,000
4816/12 04:24M0R0S3N3NGFull House5,000
4916/12 04:24RODAMUFull House2,000
5016/12 04:24OMBAKLAUTStraight Flush120,000

Domino Multi Jackpot System

Ikutilah global jackpot yang tersedia di system kami, dengan system jackpot terbaru dan pertama di indonesia, anda dapat membeli jackpot dengan harga 100 rupiah saja dan menangkan hadiahnya hingga puluhan juta rupiah.

Jackpot bukanlah suatu keharusan untuk dibeli, namun kami memberikan suatu fitur tambahan untuk member tercinta dari www.pokerqq81.net.

Terdapat tiga pilihan harga jackpot yang bisa anda beli yaitu :100,500 dan 1000 rupiah.

Hadiah dari Multi jackpot system www.pokerqq81.net

  1. Murni Kecil x 50 harga jackpot yang anda beli.
      (contoh:anda membeli 1000 maka:1000 X 50 = 50.000)
  2. Murni Besar x 50 harga jackpot yang anda beli
      (contoh:anda membeli 1000 maka:1000 X 50 = 50.000)
  3. BALAK x 100 harga jackpot yang anda beli
      (contoh:anda membeli 1000 maka:1000 X 100 = 100.000)
  4. ENAM DEWA x 6666 harga jackpot yang anda beli
      (contoh:anda membeli 1000 maka:1000 X 6666 = 6.666.000)

Demikian adalah penjelasan dari Multi Jackpot www.pokerqq81.net terima kasih dan selamat bermain salam hoki dari kami

Domino Jackpot Winner

TOP ENAM DEWA
No.TanggalNamaPriceWin
116/12 01:21SAMPIT01murni enam6,666,000
215/12 23:36QWINBR0murni enam6,666,000
315/12 22:38MURA1991murni enam6,666,000
415/12 22:17HIHIHII22murni enam3,333,000
515/12 21:33HOKEY9191murni enam6,666,000
TOP BALAK
No.TanggalNamaPriceWin
116/12 04:16TOPAY75balak100,000
216/12 04:13DHICK42balak100,000
316/12 04:11REWOG12balak10,000
416/12 04:11M21GIBHZVQbalak10,000
516/12 04:07R_A_R_4balak100,000
LATEST JACKPOT
No.TanggalNamaPriceWin
116/12 04:24IWANSURYAAmurni besar5,000
216/12 04:24KANYUT92murni kecil25,000
316/12 04:21HABIBI02murni besar50,000
416/12 04:20ADAMANDImurni kecil25,000
516/12 04:19NIDALmurni kecil50,000
616/12 04:19MSTPA86murni besar50,000
716/12 04:18BBON234murni kecil5,000
816/12 04:16TOPAY75balak100,000
916/12 04:15SHR72murni kecil50,000
1016/12 04:15BOSNY_88murni besar50,000
1116/12 04:14SRZ420murni besar50,000
1216/12 04:13PL1XQ2UWX3murni besar50,000
1316/12 04:13DHICK42balak100,000
1416/12 04:12SRZ420murni besar50,000
1516/12 04:12APOYMANGmurni kecil50,000
1616/12 04:11REWOG12balak10,000
1716/12 04:11DAVIDCOYmurni besar50,000
1816/12 04:11CIKOPLOX88murni besar50,000
1916/12 04:11RVN22murni kecil50,000
2016/12 04:11M21GIBHZVQbalak10,000
2116/12 04:09COX_9lucky992,500
2216/12 04:09BEDE12345lucky9950,000
2316/12 04:08SARDHOT99murni besar25,000
2416/12 04:08YOSSIDEAmurni kecil50,000
2516/12 04:08BIGOL23murni kecil50,000
2616/12 04:07HAULID1murni kecil5,000
2716/12 04:07R_A_R_4balak100,000
2816/12 04:06HELAYmurni kecil5,000
2916/12 04:06FBYDJmurni besar50,000
3016/12 04:06SURO9murni kecil25,000
3116/12 04:04TR4V3Lmurni besar5,000
3216/12 04:03FARREL04balak10,000
3316/12 04:03SELLONEmurni besar50,000
3416/12 04:03COX_9murni besar5,000
3516/12 04:03GRIND99murni besar50,000
3616/12 04:03IFANTATOKmurni besar5,000
3716/12 04:03SURYAODI21murni kecil25,000
3816/12 04:03UHUYYmurni besar50,000
3916/12 04:01QWERTY23balak10,000
4016/12 04:00RENDY018lucky9925,000
4116/12 03:59E74EAC69murni besar5,000
4216/12 03:59DAWED07murni kecil25,000
4316/12 03:59DIJ976RIKUmurni besar50,000
4416/12 03:58AIBONK111balak100,000
4516/12 03:58R_A_R_4murni besar25,000
4616/12 03:57JETRAbalak10,000
4716/12 03:56SANGSANGAmurni besar25,000
4816/12 03:55USUP05balak50,000
4916/12 03:55RAYSAKEYmurni besar25,000
5016/12 03:55YAHUTSSSmurni besar50,000

Ceme Multi Jackpot System

Jackpot dilihat dari gabungan kartu pemain dengan kartu bandar. Bandar harus membeli jackpot sebanyak jumlah player yang sedang duduk. Sebagai contoh bila terdapat 3 pemain duduk bermain, dan bandar memutuskan untuk membeli jackpot Rp 1.000, maka pada periode tersebut bandar akan membeli jackpot sebanyak 3xRp1.000 = Rp3.000.

Jackpot bukanlah suatu keharusan untuk dibeli, namun kami memberikan suatu fitur tambahan untuk member tercinta dari www.pokerqq81.net.

Terdapat tiga pilihan harga jackpot yang bisa anda beli yaitu :100,500 dan 1000 rupiah.

Hadiah dari Multi jackpot system www.pokerqq81.net

  1. Murni Kecil x 50 harga jackpot yang anda beli.
      (contoh:anda membeli 1000 maka:1000 X 50 = 50.000)
  2. Murni Besar x 50 harga jackpot yang anda beli
      (contoh:anda membeli 1000 maka:1000 X 50 = 50.000)
  3. BALAK x 200 harga jackpot yang anda beli
      (contoh:anda membeli 1000 maka:1000 X 200 = 200.000)
  4. ENAM DEWA x 6666 harga jackpot yang anda beli
      (contoh:anda membeli 1000 maka:1000 X 6666 = 6.666.000)

Demikian adalah penjelasan dari Multi Jackpot www.pokerqq81.net terima kasih dan selamat bermain salam hoki dari kami

Ceme Jackpot Winner

TOP ENAM DEWA
No.TanggalNamaPriceWin
116/12 03:49BALUYEIMmurni enam6,666,000
216/12 03:42ADAM4UT0murni enam6,666,000
316/12 03:42AAA129murni enam6,666,000
416/12 03:38BALA2BALAmurni enam666,600
516/12 03:24BIBI111murni enam666,600
TOP BALAK
No.TanggalNamaPriceWin
116/12 04:23S4TEbalak200,000
216/12 04:23MAHYONG4balak20,000
316/12 04:20JEPAANKbalak200,000
416/12 04:17BENKS41balak200,000
516/12 04:17TRUKTUKbalak100,000
LATEST JACKPOT
No.TanggalNamaPriceWin
116/12 04:25ZHEE987murni kecil25,000
216/12 04:25FCK7788murni kecil50,000
316/12 04:25AZKA0811murni kecil5,000
416/12 04:25SIBROOOOmurni besar50,000
516/12 04:25BENKS41murni besar50,000
616/12 04:25WEDOS158murni besar50,000
716/12 04:24SIDIQ29murni kecil50,000
816/12 04:24BEAT_84murni kecil50,000
916/12 04:24TONGKOSmurni kecil50,000
1016/12 04:23S4TEmurni kecil50,000
1116/12 04:23S4TEbalak200,000
1216/12 04:23MAHYONG4balak20,000
1316/12 04:23RAUQQmurni kecil50,000
1416/12 04:23JEPAANKmurni kecil50,000
1516/12 04:23CAKMAMAT12murni besar50,000
1616/12 04:23KOMO124murni besar50,000
1716/12 04:22YULII14murni besar50,000
1816/12 04:22AJENG6363murni besar50,000
1916/12 04:22ENCARISENmurni kecil25,000
2016/12 04:22KUTUGILE13murni kecil5,000
2116/12 04:22CEKYUN92murni kecil50,000
2216/12 04:22BALAOS87murni kecil50,000
2316/12 04:22BENKS41murni besar50,000
2416/12 04:22SINCHAN42murni besar50,000
2516/12 04:22BENKS41murni besar50,000
2616/12 04:22K39W4ULA85murni besar5,000
2716/12 04:22MYTH_13murni besar50,000
2816/12 04:22YULII14murni besar50,000
2916/12 04:22AJENG6363murni besar50,000
3016/12 04:21GUDIG87murni besar50,000
3116/12 04:21BONDZ87murni kecil50,000
3216/12 04:21S4TEmurni kecil50,000
3316/12 04:21UTUH74murni kecil25,000
3416/12 04:20JEPAANKbalak200,000
3516/12 04:20ENCARISENmurni kecil25,000
3616/12 04:20FATEENmurni kecil50,000
3716/12 04:20ONOGIA99murni besar50,000
3816/12 04:20SIDIQ29murni besar50,000
3916/12 04:19ENCARISENmurni kecil25,000
4016/12 04:19AMAZAR250murni kecil25,000
4116/12 04:19TEMAPOLYmurni kecil50,000
4216/12 04:18ARISSANTOSmurni besar50,000
4316/12 04:18SIKUNTImurni besar50,000
4416/12 04:18BET_CEMEmurni besar50,000
4516/12 04:18OWNER_DEWAmurni besar50,000
4616/12 04:18GYIL8N7PSmurni kecil50,000
4716/12 04:18D4CUmurni kecil5,000
4816/12 04:18TEMAPOLYmurni besar50,000
4916/12 04:18ROYDAETENmurni besar25,000
5016/12 04:18TEMAPOLYmurni besar50,000